Regional Weather Roundup
Issued by NWS Midland/Odessa, TX

Home | Current Version | Previous Version | Text Only | Print | Product List | Glossary On
Versions: 1 2 3 4 5 6 7 8 9 10 11 12 13 14 15 16 17 18 19 20 21 22 23 24 25 26 27 28 29 30 31 32 33 34 35 36 37 38 39 40 41 42 43 44 45 46 47 48 49 50
000
ASUS44 KMAF 261210
RWRMAF
MIDLAND AREA WEATHER ROUNDUP
NATIONAL WEATHER SERVICE MIDLAND TX
700 AM CDT SUN MAR 26 2017

...IN SOUTHWEST TEXAS AND SOUTHEAST NEW MEXICO...

CITY           SKY/WX    TMP DP  RH WIND       PRES   REMARKS
ALPINE         CLEAR     49  18  29 SW10      29.95R
ANDREWS        FAIR      55  36  48 SW10      29.80R
ARTESIA        CLOUDY    50  27  40 N5        29.84R
BIG SPRING     CLEAR     54  35  47 SE12      29.80S
CARLSBAD       CLOUDY    59  25  27 NE3       29.81R
DRYDEN           N/A     54  40  59 N8        29.79R
FORT STOCKTON  CLEAR     57  25  29 SW9       29.83R
GUAD PASS        N/A    N/A N/A N/A MISG        N/A
HOBBS          CLEAR     50  28  43 W13G18    29.84R
MARFA          CLEAR     56   8  14 N3        29.94R
MIDLAND AIRPK  CLEAR     60  38  44 S8        29.78S
MIDLAND INTL   CLEAR     62  39  42 S15       29.78R
ODESSA         CLEAR     61  37  41 SW12      29.80R
PECOS          CLEAR     51  21  31 CALM      29.80R
PRESIDIO       FAIR      55  16  22 NW7       29.86R
SEMINOLE       CLOUDY    51  32  48 SW9       29.80R
SNYDER         CLEAR     49  35  57 SW6       29.79S
WINK           CLOUDY    44  28  53 N5        29.78R
$$
...OTHER STATIONS IN TEXAS...

CITY           SKY/WX    TMP DP  RH WIND       PRES   REMARKS
ABILENE        CLEAR     53  44  71 SE12      29.79S
AMARILLO       CLOUDY    46  33  60 SE14      29.74F WCI  40
AUSTIN         PTCLDY    65  63  93 S6        29.86F FOG
BROWNSVILLE    PTCLDY    68  66  93 S6        29.86R
CORPUS CHRISTI PTCLDY    69  68  96 SE12      29.85R
DALLAS FTW     PTCLDY    54  48  80 SE6       29.86R
DEL RIO        CLEAR     58  53  84 SE3       29.78S
EL PASO        MOCLDY    61  25  25 NW8       29.90R
HOUSTON INT    PTCLDY    65  63  93 SE5       29.91R
LUBBOCK        CLOUDY    50  30  46 W5        29.81R
SAN ANGELO     CLEAR     62  54  74 S8        29.78F
SAN ANTONIO    PTCLDY    62  60  93 SE7       29.87R
WACO           CLOUDY    59  57  93 S13       29.88S
WICHITA FALLS  NOT AVBL
$$
...OTHER LOCATIONS IN NEW MEXICO...

CITY           SKY/WX    TMP DP  RH WIND       PRES   REMARKS
ALAMAGORDO     CLOUDY    54  19  26 NE10      29.90S
ALBUQUERQUE    PTCLDY    38  27  64 SE7       29.91F WCI  33
CANNON AFB     CLOUDY    50  27  41 W12       29.80R
CLOVIS         CLOUDY    48  27  43 W8        29.79S
HOLLOMAN AFB   CLOUDY    49  21  33 NE9       29.92S
ROSWELL        MOCLDY    55  26  32 NW5         N/A
RUIDOSO        CLEAR     45  16  31 NW20G33   29.93S WCI  37
SANTA FE       CLEAR     36  31  82 W8        29.89R WCI  30
TRUTH OR CONSE CLEAR     50  22  33 NW10      29.92S
TUCUMCARI      CLOUDY    53  29  39 W24G31    29.72S
$$




USA.gov is the U.S. government's official web portal to all federal, state and local government web resources and services.